Zurück zum Katalog

STARLINK-34984

AktivKommunikationSSO
NORAD 65290·PAYLOAD·🇺🇸 United States

Gestartet Aug 22, 2025 von Vandenberg Space Force Base

Loading…

Nächste Überflüge (nächste 24 Stunden)

TLE

AktuellSource: CelesTrak SupGP

Epoche: Sep 14, 2026, 15:31 UTC

1 65290C 25184T   26257.64701389  .00006158  00000+0  19130-3 0  2575
2 65290  97.2843 305.6995 0000919  96.6865  35.3043 15.33413068    16

Verfolge STARLINK-34984 in Echtzeit mit AllMySat

Download on the App Store